Location: Roswell
(33.3943°N, 104.5230°W)
Time: 01:26:30
(UTC+00:00)

Courier 1B Rocket - Visible Passes

Search period start: 05 November 2024 00:00
Search period end: 15 November 2024 00:00
Orbit: 920 x 1201 km, 28.2° (Epoch: 04 November)

Date Brightness Start Highest point End Pass type
(mag) Time Alt. Az. Time Alt. Az. Time Alt. Az.
05 Nov 5.8 01:24:27 10° SW 01:29:58 33° SSE 01:32:32 24° ESE visible
05 Nov 6.9 03:16:51 10° WSW 03:18:53 21° WSW 03:18:53 21° WSW visible
06 Nov 6.3 00:23:57 10° SSW 00:29:01 26° SSE 00:34:02 10° ESE visible
06 Nov 5.4 02:15:55 10° WSW 02:21:32 48° S 02:21:32 48° S visible
07 Nov 5.6 01:15:01 10° SW 01:20:51 41° SSE 01:24:11 23° ESE visible
07 Nov 6.6 03:07:49 10° WSW 03:10:32 26° WSW 03:10:32 26° WSW visible
08 Nov 5.1 02:06:48 10° WSW 02:12:50 53° S 02:13:09 52° SSE visible
09 Nov 5.4 01:05:46 10° WSW 01:11:48 49° S 01:15:47 21° ESE visible
09 Nov 6.4 02:58:50 10° W 03:02:08 31° WSW 03:02:08 31° WSW visible
10 Nov 5.1 01:57:43 10° WSW 02:03:49 54° S 02:04:46 49° SSE visible
10 Nov 7.7 03:51:05 10° W 03:51:08 10° W 03:51:08 10° W visible
11 Nov 5.4 00:56:36 10° WSW 01:02:46 53° S 01:07:25 17° ESE visible
11 Nov 6.1 02:49:53 10° W 02:53:47 35° WSW 02:53:47 35° WSW visible
12 Nov 5.3 01:48:41 10° W 01:54:48 52° S 01:56:28 41° SE visible
12 Nov 7.5 03:42:19 10° W 03:42:49 12° WSW 03:42:49 12° WSW visible
13 Nov 5.4 00:47:28 10° WSW 00:53:45 55° S 00:59:10 13° ESE visible
13 Nov 6.0 02:40:59 10° W 02:45:32 36° SW 02:45:32 36° SW visible
14 Nov 5.6 01:39:41 10° W 01:45:45 46° S 01:48:18 31° SE visible
14 Nov 7.4 03:33:44 10° WSW 03:34:40 13° WSW 03:34:40 13° WSW visible
